Year,Month,Day,Hour,Minute,Value (Times are PST for temperature in C)
2009,10,27,00,00,6.10
2009,10,27,00,01,6.10
2009,10,27,00,02,6.10
2009,10,27,00,03,6.00
2009,10,27,00,04,6.00
2009,10,27,00,05,5.90
2009,10,27,00,06,5.90
2009,10,27,00,07,5.90
2009,10,27,00,08,5.90
2009,10,27,00,09,5.90
2009,10,27,00,10,5.90
2009,10,27,00,11,5.90
2009,10,27,00,12,5.90
2009,10,27,00,13,5.90
2009,10,27,00,14,5.90
2009,10,27,00,15,5.90
2009,10,27,00,16,5.90
2009,10,27,00,17,5.90
2009,10,27,00,18,5.90
2009,10,27,00,19,5.90
2009,10,27,00,20,5.90
2009,10,27,00,21,5.90
2009,10,27,00,22,5.90
2009,10,27,00,23,5.80
2009,10,27,00,24,5.80
2009,10,27,00,25,5.80
2009,10,27,00,26,5.80
2009,10,27,00,27,5.80
2009,10,27,00,28,5.80
2009,10,27,00,29,5.80
2009,10,27,00,30,5.80
2009,10,27,00,31,5.70
2009,10,27,00,32,5.70
2009,10,27,00,33,5.70
2009,10,27,00,34,5.70
2009,10,27,00,35,5.70
2009,10,27,00,36,5.70
2009,10,27,00,37,5.60
2009,10,27,00,38,5.60
2009,10,27,00,39,5.60
2009,10,27,00,40,5.60
2009,10,27,00,41,5.70
2009,10,27,00,42,5.70
2009,10,27,00,43,5.70
2009,10,27,00,44,5.70
2009,10,27,00,45,5.70
2009,10,27,00,46,5.80
2009,10,27,00,47,5.80
2009,10,27,00,48,5.80
2009,10,27,00,49,5.80
2009,10,27,00,50,5.80
2009,10,27,00,51,5.80
2009,10,27,00,52,5.80
2009,10,27,00,53,5.80
2009,10,27,00,54,5.80
2009,10,27,00,55,5.80
2009,10,27,00,56,5.70
2009,10,27,00,57,5.70
2009,10,27,00,58,5.70
2009,10,27,00,59,5.70
2009,10,27,01,00,5.70
2009,10,27,01,01,5.70
2009,10,27,01,02,5.70
2009,10,27,01,03,5.70
2009,10,27,01,04,5.80
2009,10,27,01,05,5.80
2009,10,27,01,06,5.80
2009,10,27,01,07,5.80
2009,10,27,01,08,5.80
2009,10,27,01,09,5.80
2009,10,27,01,10,5.80
2009,10,27,01,11,5.80
2009,10,27,01,12,5.80
2009,10,27,01,13,5.80
2009,10,27,01,14,5.80
2009,10,27,01,15,5.90
2009,10,27,01,16,6.00
2009,10,27,01,17,6.00
2009,10,27,01,18,6.10
2009,10,27,01,19,6.10
2009,10,27,01,20,6.10
2009,10,27,01,21,6.20
2009,10,27,01,22,6.20
2009,10,27,01,23,6.20
2009,10,27,01,24,6.20
2009,10,27,01,25,6.20
2009,10,27,01,26,6.30
2009,10,27,01,27,6.30
2009,10,27,01,28,6.30
2009,10,27,01,29,6.40
2009,10,27,01,30,6.40
2009,10,27,01,31,6.40
2009,10,27,01,32,6.50
2009,10,27,01,33,6.50
2009,10,27,01,34,6.50
2009,10,27,01,35,6.60
2009,10,27,01,36,6.60
2009,10,27,01,37,6.60
2009,10,27,01,38,6.60
2009,10,27,01,39,6.60
2009,10,27,01,40,6.60
2009,10,27,01,41,6.60
2009,10,27,01,42,6.60
2009,10,27,01,43,6.60
2009,10,27,01,44,6.60
2009,10,27,01,45,6.60
2009,10,27,01,46,6.60
2009,10,27,01,47,6.60
2009,10,27,01,48,6.50
2009,10,27,01,49,6.50
2009,10,27,01,50,6.50
2009,10,27,01,51,6.50
2009,10,27,01,52,6.40
2009,10,27,01,53,6.40
2009,10,27,01,54,6.40
2009,10,27,01,55,6.40
2009,10,27,01,56,6.40
2009,10,27,01,57,6.40
2009,10,27,01,58,6.30
2009,10,27,01,59,6.40
2009,10,27,02,00,6.40
2009,10,27,02,01,6.30
2009,10,27,02,02,6.30
2009,10,27,02,03,6.30
2009,10,27,02,04,6.30
2009,10,27,02,05,6.40
2009,10,27,02,06,6.40
2009,10,27,02,07,6.40
2009,10,27,02,08,6.50
2009,10,27,02,09,6.50
2009,10,27,02,10,6.60
2009,10,27,02,11,6.70
2009,10,27,02,12,6.70
2009,10,27,02,13,6.80
2009,10,27,02,14,6.80
2009,10,27,02,15,6.80
2009,10,27,02,16,6.80
2009,10,27,02,17,6.80
2009,10,27,02,18,6.80
2009,10,27,02,19,6.80
2009,10,27,02,20,6.80
2009,10,27,02,21,6.80
2009,10,27,02,22,6.70
2009,10,27,02,23,6.70
2009,10,27,02,24,6.60
2009,10,27,02,26,6.60
2009,10,27,02,27,6.50
2009,10,27,02,28,6.50
2009,10,27,02,29,6.40
2009,10,27,02,30,6.40
2009,10,27,02,31,6.30
2009,10,27,02,32,6.30
2009,10,27,02,33,6.30
2009,10,27,02,34,6.20
2009,10,27,02,35,6.20
2009,10,27,02,36,6.20
2009,10,27,02,37,6.20
2009,10,27,02,38,6.20
2009,10,27,02,39,6.10
2009,10,27,02,40,6.10
2009,10,27,02,41,6.10
2009,10,27,02,42,6.10
2009,10,27,02,43,6.00
2009,10,27,02,44,6.00
2009,10,27,02,45,6.00
2009,10,27,02,46,6.00
2009,10,27,02,47,6.00
2009,10,27,02,48,6.00
2009,10,27,02,49,6.00
2009,10,27,02,50,6.00
2009,10,27,02,51,6.00
2009,10,27,02,52,6.00
2009,10,27,02,53,6.10
2009,10,27,02,54,6.10
2009,10,27,02,55,6.10
2009,10,27,02,56,6.10
2009,10,27,02,57,6.20
2009,10,27,02,58,6.20
2009,10,27,02,59,6.20
2009,10,27,03,00,6.30
2009,10,27,03,01,6.30
2009,10,27,03,02,6.30
2009,10,27,03,03,6.30
2009,10,27,03,04,6.30
2009,10,27,03,05,6.30
2009,10,27,03,06,6.30
2009,10,27,03,07,6.30
2009,10,27,03,08,6.40
2009,10,27,03,09,6.40
2009,10,27,03,10,6.40
2009,10,27,03,11,6.40
2009,10,27,03,12,6.40
2009,10,27,03,13,6.40
2009,10,27,03,14,6.40
2009,10,27,03,15,6.40
2009,10,27,03,16,6.30
2009,10,27,03,17,6.30
2009,10,27,03,18,6.40
2009,10,27,03,19,6.40
2009,10,27,03,20,6.40
2009,10,27,03,21,6.40
2009,10,27,03,22,6.40
2009,10,27,03,23,6.40
2009,10,27,03,24,6.40
2009,10,27,03,25,6.40
2009,10,27,03,26,6.40
2009,10,27,03,27,6.40
2009,10,27,03,28,6.40
2009,10,27,03,29,6.40
2009,10,27,03,30,6.40
2009,10,27,03,31,6.40
2009,10,27,03,32,6.50
2009,10,27,03,33,6.50
2009,10,27,03,34,6.50
2009,10,27,03,35,6.50
2009,10,27,03,36,6.50
2009,10,27,03,37,6.50
2009,10,27,03,38,6.50
2009,10,27,03,39,6.40
2009,10,27,03,40,6.40
2009,10,27,03,41,6.40
2009,10,27,03,42,6.40
2009,10,27,03,43,6.40
2009,10,27,03,44,6.40
2009,10,27,03,45,6.40
2009,10,27,03,46,6.40
2009,10,27,03,47,6.30
2009,10,27,03,48,6.30
2009,10,27,03,49,6.30
2009,10,27,03,50,6.30
2009,10,27,03,51,6.30
2009,10,27,03,52,6.30
2009,10,27,03,53,6.30
2009,10,27,03,54,6.30
2009,10,27,03,55,6.30
2009,10,27,03,56,6.30
2009,10,27,03,57,6.30
2009,10,27,03,58,6.30
2009,10,27,03,59,6.30
2009,10,27,04,00,6.20
2009,10,27,04,01,6.20
2009,10,27,04,02,6.20
2009,10,27,04,03,6.20
2009,10,27,04,04,6.20
2009,10,27,04,05,6.10
2009,10,27,04,06,6.10
2009,10,27,04,07,6.10
2009,10,27,04,08,6.00
2009,10,27,04,09,5.90
2009,10,27,04,10,5.80
2009,10,27,04,11,5.80
2009,10,27,04,12,5.70
2009,10,27,04,13,5.70
2009,10,27,04,14,5.70
2009,10,27,04,15,5.60
2009,10,27,04,16,5.50
2009,10,27,04,17,5.40
2009,10,27,04,18,5.40
2009,10,27,04,19,5.30
2009,10,27,04,20,5.30
2009,10,27,04,21,5.20
2009,10,27,04,22,5.20
2009,10,27,04,23,5.10
2009,10,27,04,24,5.00
2009,10,27,04,25,5.00
2009,10,27,04,26,4.90
2009,10,27,04,27,4.90
2009,10,27,04,28,4.80
2009,10,27,04,29,4.70
2009,10,27,04,30,4.70
2009,10,27,04,31,4.60
2009,10,27,04,32,4.50
2009,10,27,04,33,4.50
2009,10,27,04,34,4.40
2009,10,27,04,35,4.40
2009,10,27,04,36,4.30
2009,10,27,04,37,4.30
2009,10,27,04,38,4.20
2009,10,27,04,39,4.20
2009,10,27,04,40,4.20
2009,10,27,04,41,4.10
2009,10,27,04,42,4.10
2009,10,27,04,43,4.10
2009,10,27,04,44,4.00
2009,10,27,04,45,4.00
2009,10,27,04,46,4.00
2009,10,27,04,47,3.90
2009,10,27,04,48,3.90
2009,10,27,04,49,3.80
2009,10,27,04,50,3.80
2009,10,27,04,51,3.70
2009,10,27,04,52,3.70
2009,10,27,04,53,3.60
2009,10,27,04,54,3.60
2009,10,27,04,55,3.50
2009,10,27,04,56,3.50
2009,10,27,04,57,3.40
2009,10,27,04,58,3.40
2009,10,27,04,59,3.30
2009,10,27,05,00,3.30
2009,10,27,05,01,3.30
2009,10,27,05,02,3.20
2009,10,27,05,03,3.20
2009,10,27,05,04,3.20
2009,10,27,05,05,3.10
2009,10,27,05,06,3.10
2009,10,27,05,07,3.10
2009,10,27,05,08,3.00
2009,10,27,05,09,3.00
2009,10,27,05,10,2.90
2009,10,27,05,11,2.90
2009,10,27,05,12,2.90
2009,10,27,05,13,2.80
2009,10,27,05,14,2.80
2009,10,27,05,15,2.80
2009,10,27,05,16,2.80
2009,10,27,05,17,2.70
2009,10,27,05,18,2.70
2009,10,27,05,19,2.70
2009,10,27,05,20,2.60
2009,10,27,05,21,2.60
2009,10,27,05,22,2.60
2009,10,27,05,23,2.60
2009,10,27,05,24,2.50
2009,10,27,05,25,2.50
2009,10,27,05,26,2.50
2009,10,27,05,27,2.50
2009,10,27,05,28,2.50
2009,10,27,05,29,2.50
2009,10,27,05,30,2.50
2009,10,27,05,31,2.50
2009,10,27,05,32,2.50
2009,10,27,05,33,2.50
2009,10,27,05,34,2.40
2009,10,27,05,35,2.40
2009,10,27,05,36,2.40
2009,10,27,05,37,2.40
2009,10,27,05,38,2.30
2009,10,27,05,39,2.30
2009,10,27,05,40,2.30
2009,10,27,05,41,2.30
2009,10,27,05,42,2.30
2009,10,27,05,43,2.20
2009,10,27,05,44,2.20
2009,10,27,05,45,2.20
2009,10,27,05,46,2.20
2009,10,27,05,47,2.20
2009,10,27,05,48,2.10
2009,10,27,05,49,2.10
2009,10,27,05,50,2.10
2009,10,27,05,51,2.10
2009,10,27,05,52,2.10
2009,10,27,05,53,2.00
2009,10,27,05,54,2.00
2009,10,27,05,55,2.00
2009,10,27,05,56,2.00
2009,10,27,05,57,2.00
2009,10,27,05,58,2.00
2009,10,27,05,59,2.00
2009,10,27,06,00,2.00
2009,10,27,06,01,2.00
2009,10,27,06,02,2.00
2009,10,27,06,03,2.00
2009,10,27,06,04,1.90
2009,10,27,06,05,1.90
2009,10,27,06,06,1.90
2009,10,27,06,07,1.90
2009,10,27,06,08,1.80
2009,10,27,06,09,1.80
2009,10,27,06,10,1.80
2009,10,27,06,11,1.80
2009,10,27,06,12,1.80
2009,10,27,06,13,1.70
2009,10,27,06,14,1.70
2009,10,27,06,15,1.70
2009,10,27,06,16,1.70
2009,10,27,06,17,1.70
2009,10,27,06,18,1.60
2009,10,27,06,19,1.60
2009,10,27,06,20,1.60
2009,10,27,06,21,1.60
2009,10,27,06,22,1.50
2009,10,27,06,23,1.50
2009,10,27,06,24,1.50
2009,10,27,06,25,1.40
2009,10,27,06,26,1.40
2009,10,27,06,27,1.40
2009,10,27,06,28,1.40
2009,10,27,06,29,1.40
2009,10,27,06,30,1.40
2009,10,27,06,31,1.30
2009,10,27,06,32,1.30
2009,10,27,06,33,1.30
2009,10,27,06,34,1.30
2009,10,27,06,35,1.30
2009,10,27,06,36,1.30
2009,10,27,06,37,1.30
2009,10,27,06,38,1.30
2009,10,27,06,39,1.30
2009,10,27,06,40,1.30
2009,10,27,06,41,1.30
2009,10,27,06,42,1.30
2009,10,27,06,43,1.30
2009,10,27,06,44,1.30
2009,10,27,06,45,1.30
2009,10,27,06,46,1.20
2009,10,27,06,47,1.20
2009,10,27,06,48,1.20
2009,10,27,06,49,1.20
2009,10,27,06,50,1.20
2009,10,27,06,51,1.20
2009,10,27,06,52,1.20
2009,10,27,06,53,1.10
2009,10,27,06,54,1.10
2009,10,27,06,55,1.10
2009,10,27,06,56,1.10
2009,10,27,06,57,1.10
2009,10,27,06,58,1.00
2009,10,27,06,59,1.00
2009,10,27,07,00,1.00
2009,10,27,07,01,1.00
2009,10,27,07,02,0.90
2009,10,27,07,03,0.90
2009,10,27,07,04,0.90
2009,10,27,07,05,0.90
2009,10,27,07,06,0.90
2009,10,27,07,07,0.80
2009,10,27,07,08,0.80
2009,10,27,07,09,0.80
2009,10,27,07,10,0.80
2009,10,27,07,11,0.80
2009,10,27,07,12,0.90
2009,10,27,07,13,0.90
2009,10,27,07,14,0.90
2009,10,27,07,15,0.80
2009,10,27,07,16,0.80
2009,10,27,07,17,0.80
2009,10,27,07,18,0.80
2009,10,27,07,19,0.80
2009,10,27,07,20,0.80
2009,10,27,07,21,0.80
2009,10,27,07,22,0.80
2009,10,27,07,23,0.80
2009,10,27,07,24,0.80
2009,10,27,07,25,0.80
2009,10,27,07,26,0.80
2009,10,27,07,27,0.80
2009,10,27,07,28,0.70
2009,10,27,07,29,0.70
2009,10,27,07,30,0.70
2009,10,27,07,31,0.70
2009,10,27,07,32,0.70
2009,10,27,07,33,0.70
2009,10,27,07,34,0.70
2009,10,27,07,35,0.70
2009,10,27,07,36,0.70
2009,10,27,07,37,0.60
2009,10,27,07,38,0.60
2009,10,27,07,39,0.60
2009,10,27,07,40,0.60
2009,10,27,07,41,0.60
2009,10,27,07,42,0.60
2009,10,27,07,43,0.60
2009,10,27,07,44,0.60
2009,10,27,07,45,0.50
2009,10,27,07,46,0.50
2009,10,27,07,47,0.50
2009,10,27,07,48,0.50
2009,10,27,07,49,0.60
2009,10,27,07,50,0.60
2009,10,27,07,51,0.60
2009,10,27,07,52,0.60
2009,10,27,07,53,0.60
2009,10,27,07,54,0.60
2009,10,27,07,55,0.60
2009,10,27,07,56,0.60
2009,10,27,07,57,0.60
2009,10,27,07,58,0.60
2009,10,27,07,59,0.60
2009,10,27,08,00,0.60
2009,10,27,08,01,0.60
2009,10,27,08,02,0.60
2009,10,27,08,03,0.60
2009,10,27,08,04,0.60
2009,10,27,08,05,0.60
2009,10,27,08,06,0.60
2009,10,27,08,07,0.60
2009,10,27,08,08,0.60
2009,10,27,08,09,0.50
2009,10,27,08,10,0.50
2009,10,27,08,11,0.50
2009,10,27,08,12,0.50
2009,10,27,08,13,0.50
2009,10,27,08,14,0.40
2009,10,27,08,15,0.40
2009,10,27,08,16,0.40
2009,10,27,08,17,0.40
2009,10,27,08,18,0.40
2009,10,27,08,19,0.40
2009,10,27,08,20,0.40
2009,10,27,08,21,0.40
2009,10,27,08,22,0.40
2009,10,27,08,23,0.40
2009,10,27,08,24,0.50
2009,10,27,08,25,0.50
2009,10,27,08,26,0.50
2009,10,27,08,27,0.50
2009,10,27,08,28,0.60
2009,10,27,08,29,0.60
2009,10,27,08,30,0.60
2009,10,27,08,31,0.70
2009,10,27,08,32,0.70
2009,10,27,08,33,0.70
2009,10,27,08,34,0.70
2009,10,27,08,35,0.70
2009,10,27,08,36,0.70
2009,10,27,08,37,0.70
2009,10,27,08,38,0.80
2009,10,27,08,39,0.80
2009,10,27,08,40,0.80
2009,10,27,08,41,0.80
2009,10,27,08,42,0.90
2009,10,27,08,43,0.90
2009,10,27,08,44,0.90
2009,10,27,08,45,0.90
2009,10,27,08,46,0.90
2009,10,27,08,47,0.90
2009,10,27,08,48,1.00
2009,10,27,08,49,1.00
2009,10,27,08,50,1.00
2009,10,27,08,51,1.10
2009,10,27,08,52,1.10
2009,10,27,08,53,1.10
2009,10,27,08,54,1.10
2009,10,27,08,55,1.20
2009,10,27,08,56,1.20
2009,10,27,08,57,1.20
2009,10,27,08,58,1.20
2009,10,27,08,59,1.30
2009,10,27,09,00,1.30
2009,10,27,09,01,1.30
2009,10,27,09,02,1.40
2009,10,27,09,03,1.50
2009,10,27,09,04,1.50
2009,10,27,09,05,1.60
2009,10,27,09,06,1.60
2009,10,27,09,07,1.70
2009,10,27,09,08,1.70
2009,10,27,09,09,1.70
2009,10,27,09,10,1.80
2009,10,27,09,11,1.80
2009,10,27,09,12,1.90
2009,10,27,09,13,1.90
2009,10,27,09,14,2.00
2009,10,27,09,15,2.00
2009,10,27,09,16,2.10
2009,10,27,09,17,2.10
2009,10,27,09,18,2.20
2009,10,27,09,19,2.20
2009,10,27,09,20,2.20
2009,10,27,09,21,2.20
2009,10,27,09,22,2.20
2009,10,27,09,23,2.30
2009,10,27,09,24,2.30
2009,10,27,09,25,2.30
2009,10,27,09,26,2.30
2009,10,27,09,27,2.30
2009,10,27,09,28,2.40
2009,10,27,09,29,2.40
2009,10,27,09,30,2.50
2009,10,27,09,31,2.60
2009,10,27,09,32,2.60
2009,10,27,09,33,2.70
2009,10,27,09,34,2.80
2009,10,27,09,35,2.90
2009,10,27,09,36,3.00
2009,10,27,09,37,3.20
2009,10,27,09,38,3.30
2009,10,27,09,39,3.30
2009,10,27,09,40,3.40
2009,10,27,09,41,3.50
2009,10,27,09,42,3.50
2009,10,27,09,43,3.50
2009,10,27,09,44,3.60
2009,10,27,09,45,3.60
2009,10,27,09,46,3.70
2009,10,27,09,47,3.70
2009,10,27,09,48,3.70
2009,10,27,09,49,3.80
2009,10,27,09,50,3.80
2009,10,27,09,51,3.90
2009,10,27,09,52,3.90
2009,10,27,09,53,4.00
2009,10,27,09,54,4.10
2009,10,27,09,55,4.10
2009,10,27,09,56,4.20
2009,10,27,09,57,4.30
2009,10,27,09,58,4.30
2009,10,27,09,59,4.40
2009,10,27,10,00,4.50
2009,10,27,10,01,4.60
2009,10,27,10,02,4.70
2009,10,27,10,03,4.80
2009,10,27,10,04,4.90
2009,10,27,10,05,5.00
2009,10,27,10,06,5.10
2009,10,27,10,07,5.30
2009,10,27,10,08,5.40
2009,10,27,10,09,5.50
2009,10,27,10,10,5.60
2009,10,27,10,11,5.80
2009,10,27,10,12,5.90
2009,10,27,10,13,6.00
2009,10,27,10,14,6.20
2009,10,27,10,15,6.30
2009,10,27,10,16,6.40
2009,10,27,10,17,6.50
2009,10,27,10,18,6.60
2009,10,27,10,19,6.80
2009,10,27,10,20,6.90
2009,10,27,10,21,7.00
2009,10,27,10,22,7.10
2009,10,27,10,23,7.20
2009,10,27,10,24,7.20
2009,10,27,10,25,7.30
2009,10,27,10,26,7.40
2009,10,27,10,27,7.50
2009,10,27,10,28,7.60
2009,10,27,10,29,7.70
2009,10,27,10,30,7.70
2009,10,27,10,31,7.80
2009,10,27,10,32,7.90
2009,10,27,10,33,7.90
2009,10,27,10,34,8.00
2009,10,27,10,35,8.10
2009,10,27,10,36,8.20
2009,10,27,10,37,8.20
2009,10,27,10,38,8.30
2009,10,27,10,39,8.40
2009,10,27,10,40,8.40
2009,10,27,10,41,8.40
2009,10,27,10,42,8.50
2009,10,27,10,43,8.60
2009,10,27,10,44,8.70
2009,10,27,10,45,8.80
2009,10,27,10,46,8.80
2009,10,27,10,47,8.90
2009,10,27,10,48,8.90
2009,10,27,10,49,9.00
2009,10,27,10,50,9.10
2009,10,27,10,51,9.10
2009,10,27,10,52,9.10
2009,10,27,10,53,9.10
2009,10,27,10,54,9.10
2009,10,27,10,55,9.10
2009,10,27,10,56,9.10
2009,10,27,10,57,9.10
2009,10,27,10,58,9.10
2009,10,27,10,59,9.10
2009,10,27,11,00,9.10
2009,10,27,11,01,9.10
2009,10,27,11,02,9.10
2009,10,27,11,03,9.10
2009,10,27,11,04,9.10
2009,10,27,11,05,9.20
2009,10,27,11,06,9.20
2009,10,27,11,07,9.30
2009,10,27,11,08,9.30
2009,10,27,11,09,9.40
2009,10,27,11,10,9.40
2009,10,27,11,11,9.40
2009,10,27,11,12,9.40
2009,10,27,11,13,9.40
2009,10,27,11,14,9.50
2009,10,27,11,15,9.50
2009,10,27,11,16,9.60
2009,10,27,11,17,9.60
2009,10,27,11,18,9.60
2009,10,27,11,19,9.60
2009,10,27,11,20,9.60
2009,10,27,11,21,9.70
2009,10,27,11,22,9.70
2009,10,27,11,23,9.70
2009,10,27,11,24,9.70
2009,10,27,11,25,9.70
2009,10,27,11,26,9.70
2009,10,27,11,27,9.70
2009,10,27,11,28,9.70
2009,10,27,11,29,9.70
2009,10,27,11,30,9.60
2009,10,27,11,31,9.60
2009,10,27,11,32,9.60
2009,10,27,11,33,9.60
2009,10,27,11,34,9.60
2009,10,27,11,35,9.70
2009,10,27,11,36,9.80
2009,10,27,11,37,9.90
2009,10,27,11,38,10.00
2009,10,27,11,39,10.10
2009,10,27,11,40,10.20
2009,10,27,11,41,10.30
2009,10,27,11,42,10.40
2009,10,27,11,43,10.40
2009,10,27,11,44,10.50
2009,10,27,11,45,10.50
2009,10,27,11,46,10.60
2009,10,27,11,47,10.60
2009,10,27,11,48,10.60
2009,10,27,11,49,10.60
2009,10,27,11,50,10.70
2009,10,27,11,51,10.70
2009,10,27,11,52,10.70
2009,10,27,11,53,10.80
2009,10,27,11,54,10.80
2009,10,27,11,55,10.70
2009,10,27,11,56,10.60
2009,10,27,11,57,10.50
2009,10,27,11,58,10.40
2009,10,27,11,59,10.40
2009,10,27,12,00,10.50
2009,10,27,12,01,10.60
2009,10,27,12,02,10.60
2009,10,27,12,03,10.60
2009,10,27,12,04,10.70
2009,10,27,12,05,10.80
2009,10,27,12,06,10.80
2009,10,27,12,07,10.90
2009,10,27,12,08,10.90
2009,10,27,12,09,10.90
2009,10,27,12,10,11.00
2009,10,27,12,11,11.00
2009,10,27,12,12,10.90
2009,10,27,12,13,10.80
2009,10,27,12,14,10.80
2009,10,27,12,15,10.60
2009,10,27,12,16,10.50
2009,10,27,12,17,10.50
2009,10,27,12,18,10.40
2009,10,27,12,19,10.40
2009,10,27,12,20,10.50
2009,10,27,12,21,10.50
2009,10,27,12,22,10.50
2009,10,27,12,23,10.40
2009,10,27,12,24,10.40
2009,10,27,12,25,10.40
2009,10,27,12,26,10.40
2009,10,27,12,27,10.40
2009,10,27,12,28,10.40
2009,10,27,12,29,10.40
2009,10,27,12,30,10.40
2009,10,27,12,31,10.30
2009,10,27,12,32,10.30
2009,10,27,12,33,10.30
2009,10,27,12,34,10.30
2009,10,27,12,35,10.40
2009,10,27,12,36,10.50
2009,10,27,12,37,10.50
2009,10,27,12,38,10.50
2009,10,27,12,39,10.40
2009,10,27,12,40,10.40
2009,10,27,12,41,10.40
2009,10,27,12,42,10.50
2009,10,27,12,43,10.50
2009,10,27,12,44,10.60
2009,10,27,12,45,10.60
2009,10,27,12,46,10.70
2009,10,27,12,47,10.70
2009,10,27,12,48,10.70
2009,10,27,12,49,10.70
2009,10,27,12,50,10.70
2009,10,27,12,51,10.80
2009,10,27,12,52,10.80
2009,10,27,12,53,10.90
2009,10,27,12,54,10.90
2009,10,27,12,55,10.80
2009,10,27,12,56,10.80
2009,10,27,12,57,10.80
2009,10,27,12,58,10.80
2009,10,27,12,59,10.80
2009,10,27,13,00,10.90
2009,10,27,13,01,11.00
2009,10,27,13,02,11.00
2009,10,27,13,03,11.10
2009,10,27,13,04,11.10
2009,10,27,13,05,11.10
2009,10,27,13,06,11.10
2009,10,27,13,07,11.00
2009,10,27,13,08,11.10
2009,10,27,13,09,11.10
2009,10,27,13,10,11.10
2009,10,27,13,11,11.10
2009,10,27,13,12,11.20
2009,10,27,13,13,11.20
2009,10,27,13,14,11.20
2009,10,27,13,15,11.10
2009,10,27,13,16,11.20
2009,10,27,13,17,11.10
2009,10,27,13,18,11.10
2009,10,27,13,19,11.10
2009,10,27,13,20,11.20
2009,10,27,13,21,11.20
2009,10,27,13,22,11.20
2009,10,27,13,23,11.20
2009,10,27,13,24,11.20
2009,10,27,13,25,11.20
2009,10,27,13,26,11.10
2009,10,27,13,27,11.00
2009,10,27,13,28,10.90
2009,10,27,13,29,10.70
2009,10,27,13,30,10.60
2009,10,27,13,31,10.60
2009,10,27,13,32,10.50
2009,10,27,13,33,10.40
2009,10,27,13,34,10.30
2009,10,27,13,35,10.30
2009,10,27,13,36,10.30
2009,10,27,13,37,10.40
2009,10,27,13,38,10.40
2009,10,27,13,39,10.50
2009,10,27,13,40,10.60
2009,10,27,13,41,10.60
2009,10,27,13,42,10.70
2009,10,27,13,43,10.70
2009,10,27,13,44,10.70
2009,10,27,13,45,10.70
2009,10,27,13,46,10.70
2009,10,27,13,47,10.70
2009,10,27,13,48,10.70
2009,10,27,13,49,10.70
2009,10,27,13,50,10.70
2009,10,27,13,51,10.70
2009,10,27,13,52,10.70
2009,10,27,13,53,10.70
2009,10,27,13,54,10.70
2009,10,27,13,55,10.80
2009,10,27,13,56,10.80
2009,10,27,13,57,10.80
2009,10,27,13,58,10.80
2009,10,27,13,59,10.90
2009,10,27,14,00,11.00
2009,10,27,14,01,11.00
2009,10,27,14,02,11.10
2009,10,27,14,03,11.10
2009,10,27,14,04,11.10
2009,10,27,14,05,11.00
2009,10,27,14,06,11.00
2009,10,27,14,07,10.90
2009,10,27,14,08,10.90
2009,10,27,14,09,10.90
2009,10,27,14,10,10.90
2009,10,27,14,11,10.90
2009,10,27,14,12,10.80
2009,10,27,14,13,10.80
2009,10,27,14,14,10.90
2009,10,27,14,15,10.90
2009,10,27,14,16,10.90
2009,10,27,14,17,11.00
2009,10,27,14,18,11.10
2009,10,27,14,19,11.10
2009,10,27,14,20,11.10
2009,10,27,14,21,11.10
2009,10,27,14,22,11.10
2009,10,27,14,23,11.10
2009,10,27,14,24,11.10
2009,10,27,14,25,11.20
2009,10,27,14,26,11.20
2009,10,27,14,27,11.30
2009,10,27,14,28,11.40
2009,10,27,14,29,11.40
2009,10,27,14,30,11.40
2009,10,27,14,31,11.30
2009,10,27,14,32,11.30
2009,10,27,14,33,11.30
2009,10,27,14,34,11.30
2009,10,27,14,35,11.30
2009,10,27,14,36,11.30
2009,10,27,14,37,11.30
2009,10,27,14,38,11.30
2009,10,27,14,39,11.40
2009,10,27,14,40,11.40
2009,10,27,14,41,11.40
2009,10,27,14,42,11.40
2009,10,27,14,43,11.40
2009,10,27,14,44,11.40
2009,10,27,14,45,11.50
2009,10,27,14,46,11.60
2009,10,27,14,47,11.70
2009,10,27,14,48,11.80
2009,10,27,14,49,11.90
2009,10,27,14,50,11.80
2009,10,27,14,51,11.80
2009,10,27,14,52,11.90
2009,10,27,14,53,11.90
2009,10,27,14,54,11.90
2009,10,27,14,55,11.90
2009,10,27,14,56,11.90
2009,10,27,14,57,11.90
2009,10,27,14,58,12.00
2009,10,27,14,59,12.00
2009,10,27,15,00,12.10
2009,10,27,15,01,12.20
2009,10,27,15,02,12.10
2009,10,27,15,03,12.10
2009,10,27,15,04,12.00
2009,10,27,15,05,12.00
2009,10,27,15,06,11.90
2009,10,27,15,07,11.80
2009,10,27,15,08,11.80
2009,10,27,15,09,11.70
2009,10,27,15,10,11.70
2009,10,27,15,11,11.70
2009,10,27,15,12,11.70
2009,10,27,15,13,11.60
2009,10,27,15,14,11.60
2009,10,27,15,15,11.60
2009,10,27,15,16,11.60
2009,10,27,15,17,11.60
2009,10,27,15,18,11.60
2009,10,27,15,19,11.70
2009,10,27,15,20,11.80
2009,10,27,15,21,11.80
2009,10,27,15,22,11.80
2009,10,27,15,23,11.70
2009,10,27,15,24,11.70
2009,10,27,15,25,11.70
2009,10,27,15,26,11.70
2009,10,27,15,27,11.60
2009,10,27,15,28,11.60
2009,10,27,15,29,11.60
2009,10,27,15,30,11.60
2009,10,27,15,31,11.60
2009,10,27,15,32,11.50
2009,10,27,15,33,11.50
2009,10,27,15,34,11.50
2009,10,27,15,35,11.50
2009,10,27,15,36,11.50
2009,10,27,15,37,11.40
2009,10,27,15,38,11.40
2009,10,27,15,39,11.40
2009,10,27,15,40,11.30
2009,10,27,15,41,11.30
2009,10,27,15,42,11.30
2009,10,27,15,43,11.20
2009,10,27,15,44,11.20
2009,10,27,15,45,11.10
2009,10,27,15,46,11.10
2009,10,27,15,47,11.10
2009,10,27,15,48,11.00
2009,10,27,15,49,11.00
2009,10,27,15,50,10.90
2009,10,27,15,51,10.90
2009,10,27,15,52,10.90
2009,10,27,15,53,10.90
2009,10,27,15,54,10.90
2009,10,27,15,55,10.90
2009,10,27,15,56,10.90
2009,10,27,15,57,10.80
2009,10,27,15,58,10.80
2009,10,27,15,59,10.80
2009,10,27,16,00,10.80
2009,10,27,16,01,10.80
2009,10,27,16,02,10.80
2009,10,27,16,03,10.80
2009,10,27,16,04,10.80
2009,10,27,16,05,10.90
2009,10,27,16,06,10.90
2009,10,27,16,07,10.90
2009,10,27,16,08,10.90
2009,10,27,16,09,10.90
2009,10,27,16,10,10.80
2009,10,27,16,11,10.80
2009,10,27,16,12,10.80
2009,10,27,16,13,10.80
2009,10,27,16,14,10.70
2009,10,27,16,15,10.70
2009,10,27,16,16,10.70
2009,10,27,16,17,10.60
2009,10,27,16,18,10.60
2009,10,27,16,19,10.60
2009,10,27,16,20,10.50
2009,10,27,16,21,10.40
2009,10,27,16,22,10.30
2009,10,27,16,23,10.30
2009,10,27,16,24,10.30
2009,10,27,16,25,10.20
2009,10,27,16,26,10.20
2009,10,27,16,27,10.30
2009,10,27,16,28,10.30
2009,10,27,16,29,10.30
2009,10,27,16,30,10.30
2009,10,27,16,31,10.40
2009,10,27,16,32,10.40
2009,10,27,16,33,10.40
2009,10,27,16,34,10.30
2009,10,27,16,35,10.30
2009,10,27,16,36,10.30
2009,10,27,16,37,10.20
2009,10,27,16,38,10.20
2009,10,27,16,39,10.20
2009,10,27,16,40,10.10
2009,10,27,16,41,10.10
2009,10,27,16,42,10.10
2009,10,27,16,43,10.10
2009,10,27,16,44,10.10
2009,10,27,16,45,10.10
2009,10,27,16,46,10.00
2009,10,27,16,47,9.90
2009,10,27,16,48,9.90
2009,10,27,16,49,9.80
2009,10,27,16,50,9.80
2009,10,27,16,51,9.70
2009,10,27,16,52,9.70
2009,10,27,16,53,9.70
2009,10,27,16,54,9.70
2009,10,27,16,55,9.60
2009,10,27,16,56,9.60
2009,10,27,16,57,9.60
2009,10,27,16,58,9.60
2009,10,27,16,59,9.50
2009,10,27,17,00,9.50
2009,10,27,17,01,9.50
2009,10,27,17,02,9.40
2009,10,27,17,03,9.40
2009,10,27,17,04,9.30
2009,10,27,17,05,9.30
2009,10,27,17,06,9.20
2009,10,27,17,07,9.10
2009,10,27,17,08,9.10
2009,10,27,17,09,9.10
2009,10,27,17,10,9.00
2009,10,27,17,11,9.00
2009,10,27,17,12,9.00
2009,10,27,17,13,9.00
2009,10,27,17,14,8.90
2009,10,27,17,15,8.90
2009,10,27,17,16,8.90
2009,10,27,17,17,8.90
2009,10,27,17,18,8.90
2009,10,27,17,19,8.90
2009,10,27,17,20,8.90
2009,10,27,17,21,8.90
2009,10,27,17,22,8.90
2009,10,27,17,23,8.80
2009,10,27,17,24,8.80
2009,10,27,17,25,8.80
2009,10,27,17,26,8.80
2009,10,27,17,27,8.80
2009,10,27,17,28,8.80
2009,10,27,17,29,8.80
2009,10,27,17,30,8.80
2009,10,27,17,31,8.80
2009,10,27,17,32,8.80
2009,10,27,17,33,8.80
2009,10,27,17,34,8.80
2009,10,27,17,35,8.80
2009,10,27,17,36,8.80
2009,10,27,17,37,8.80
2009,10,27,17,38,8.80
2009,10,27,17,39,8.80
2009,10,27,17,40,8.80
2009,10,27,17,41,8.80
2009,10,27,17,42,8.80
2009,10,27,17,43,8.80
2009,10,27,17,44,8.70
2009,10,27,17,45,8.70
2009,10,27,17,46,8.70
2009,10,27,17,47,8.70
2009,10,27,17,48,8.60
2009,10,27,17,49,8.60
2009,10,27,17,50,8.60
2009,10,27,17,51,8.60
2009,10,27,17,52,8.50
2009,10,27,17,53,8.40